EW5676 Weather Reports


time (UTC)temp
C
wind
direction
speed
KPH
gust
KPH
rain 1hr
cm
rain 24hr
cm
rain mn
cm
humidity
%
barometer
mb
20260506134451 16 198 12.9 35.4 0.00 0.00 0.00 82 1017.2
20260506133551 16 194 16.1 30.6 0.00 0.00 0.00 84 1017.0
20260506132650 15 201 14.5 32.2 0.00 0.00 0.00 84 1016.9
20260506130851 15 198 14.5 33.8 0.00 0.00 0.00 84 1016.9
20260506125950 15 202 14.5 33.8 0.00 0.00 0.00 84 1017.0
20260506125051 15 201 17.7 33.8 0.00 0.00 0.00 84 1016.8
20260506124150 16 195 14.5 33.8 0.00 0.00 0.00 82 1017.1
20260506123250 16 207 17.7 38.6 0.00 0.00 0.00 83 1017.2
20260506122350 16 201 16.1 30.6 0.00 0.00 0.00 83 1017.3
20260506121451 16 201 11.3 27.4 0.00 0.00 0.00 83 1017.4
20260506120550 16 206 11.3 30.6 0.00 0.00 0.00 84 1017.3
20260506114751 15 205 14.5 37.0 0.00 0.00 0.00 84 1017.2
20260506113851 15 210 14.5 30.6 0.00 0.00 0.00 85 1017.1
20260506112951 15 209 11.3 30.6 0.00 0.00 0.00 85 1017.2
20260506112050 15 208 11.3 25.7 0.00 0.00 0.00 86 1017.4
20260506111151 14 206 11.3 24.1 0.00 0.00 0.00 87 1017.3
20260506110251 14 205 11.3 29.0 0.00 0.00 0.00 88 1017.3
20260506105350 14 204 11.3 29.0 0.00 0.00 0.00 88 1017.2
20260506103550 13 193 12.9 27.4 0.00 0.00 0.00 89 1017.1
20260506102650 13 199 11.3 24.1 0.00 0.00 0.00 89 1017.2
20260506101750 13 201 11.3 32.2 0.00 0.00 0.00 89 1017.2
20260506100850 13 200 12.9 27.4 0.00 0.00 0.00 89 1017.2
20260506095950 13 200 12.9 30.6 0.00 0.00 0.00 89 1017.2
20260506095050 13 200 11.3 27.4 0.00 0.00 0.00 89 1017.1
20260506094151 13 198 12.9 25.7 0.00 0.00 0.00 89 1017.1
20260506093249 13 198 11.3 27.4 0.00 0.00 0.00 89 1017.1
20260506092349 13 202 11.3 24.1 0.00 0.00 0.00 89 1017.1
20260506091449 13 201 11.3 27.4 0.00 0.00 0.00 89 1017.1
20260506090549 13 202 11.3 27.4 0.00 0.00 0.00 89 1017.2
20260506085649 13 203 12.9 25.7 0.00 0.00 0.00 88 1017.3
20260506083849 13 204 11.3 25.7 0.00 0.00 0.00 88 1017.4
20260506082949 13 197 12.9 27.4 0.00 0.00 0.00 88 1017.4
20260506082050 13 196 12.9 25.7 0.00 0.00 0.00 87 1017.5
20260506081150 13 205 12.9 30.6 0.00 0.00 0.00 87 1017.5
20260506080249 13 203 11.3 27.4 0.00 0.00 0.00 87 1017.4
20260506072650 14 209 12.9 25.7 0.00 0.00 0.00 86 1017.6
20260506071749 14 209 12.9 27.4 0.00 0.00 0.00 86 1017.7
20260506070849 14 213 16.1 38.6 0.00 0.00 0.00 85 1017.7
20260506062349 15 214 16.1 35.4 0.00 0.00 0.00 84 1017.6
20260506061449 15 215 16.1 33.8 0.00 0.00 0.00 84 1017.6
20260506051148 15 212 14.5 33.8 0.00 0.00 0.00 82 1017.9
20260506050248 15 210 14.5 29.0 0.00 0.00 0.00 81 1017.9
20260506044448 15 213 16.1 38.6 0.00 0.00 0.00 81 1017.9
20260506043548 15 219 16.1 38.6 0.00 0.00 0.00 80 1017.9
20260506042649 15 218 17.7 35.4 0.00 0.00 0.00 80 1018.1
20260506041749 15 219 17.7 40.2 0.00 0.00 0.00 80 1018.0
20260506040848 15 213 17.7 32.2 0.00 0.00 0.00 80 1018.0
20260506035048 15 205 16.1 37.0 0.00 0.00 0.00 80 1018.0
20260506034148 15 206 16.1 33.8 0.00 0.00 0.00 79 1018.0
20260506033249 15 210 17.7 40.2 0.00 0.00 0.00 79 1018.0
20260506032348 15 209 17.7 35.4 0.00 0.00 0.00 79 1018.0
20260506031448 15 212 16.1 35.4 0.00 0.00 0.00 79 1017.9
20260506025649 16 214 14.5 30.6 0.00 0.00 0.00 79 1018.0
20260506024748 16 213 17.7 40.2 0.00 0.00 0.00 79 1018.0
20260506022948 16 217 17.7 41.8 0.00 0.00 0.00 78 1018.1
20260506022048 16 214 19.3 38.6 0.00 0.00 0.00 77 1018.0
20260506021148 16 219 17.7 37.0 0.00 0.00 0.00 77 1018.0
20260506020248 16 211 17.7 37.0 0.00 0.00 0.00 76 1018.0
20260506015348 16 208 16.1 38.6 0.00 0.00 0.00 75 1017.9
20260506014449 16 211 17.7 35.4 0.00 0.00 0.00 73 1018.0
20260506013548 17 215 20.9 46.7 0.00 0.00 0.00 71 1017.8
20260506012647 17 220 19.3 46.7 0.00 0.00 0.00 70 1017.8
20260506010847 17 216 20.9 45.1 0.00 0.00 0.00 70 1017.3
20260506005048 17 218 22.5 46.7 0.00 0.00 0.00 71 1017.1
20260506004147 16 219 20.9 46.7 0.00 0.00 0.00 72 1017.0
20260506002347 17 214 19.3 41.8 0.00 0.00 0.00 72 1017.0
20260506001447 17 211 20.9 38.6 0.00 0.00 0.00 71 1016.8
20260506000547 17 221 17.7 35.4 0.00 0.00 0.00 71 1016.7
20260505235648 17 214 19.3 46.7 0.00 0.00 0.00 71 1016.5
20260505233848 17 220 16.1 40.2 0.00 0.00 0.00 71 1016.4
20260505232947 17 214 14.5 40.2 0.00 0.00 0.00 71 1016.4
20260505232048 17 205 12.9 33.8 0.00 0.00 0.00 71 1016.2
20260505231147 17 209 14.5 33.8 0.00 0.00 0.00 70 1016.0
20260505230248 17 196 14.5 30.6 0.00 0.00 0.00 68 1016.0
20260505222647 18 205 14.5 29.0 0.00 0.00 0.00 67 1015.6
20260505221747 18 213 17.7 38.6 0.00 0.00 0.00 67 1015.7
20260505220847 18 207 20.9 43.5 0.00 0.00 0.00 66 1015.6
20260505215947 18 208 16.1 43.5 0.00 0.00 0.00 65 1015.5
20260505215047 18 205 16.1 35.4 0.00 0.00 0.00 64 1015.6
20260505214148 19 195 16.1 32.2 0.00 0.00 0.00 64 1015.4
20260505213247 18 204 17.7 37.0 0.00 0.00 0.00 65 1015.3
20260505212347 18 206 16.1 35.4 0.00 0.00 0.00 65 1015.3
20260505211447 18 196 17.7 33.8 0.00 0.00 0.00 65 1015.3
20260505205647 19 199 16.1 37.0 0.00 0.00 0.00 64 1015.2
20260505203847 19 186 16.1 27.4 0.00 0.00 0.00 66 1015.2
20260505202946 18 181 16.1 32.2 0.00 0.00 0.00 66 1015.3
20260505202047 18 192 12.9 30.6 0.00 0.00 0.00 66 1015.6
20260505200246 19 198 16.1 35.4 0.00 0.00 0.00 66 1015.6
20260505195347 19 189 14.5 32.2 0.00 0.00 0.00 65 1015.7
20260505194447 19 190 16.1 35.4 0.00 0.00 0.00 66 1015.6
20260505193546 19 202 12.9 29.0 0.00 0.00 0.00 66 1015.7
20260505192646 18 209 16.1 32.2 0.00 0.00 0.00 67 1016.0
20260505191746 18 193 17.7 37.0 0.00 0.00 0.00 66 1016.1
20260505190847 19 186 17.7 33.8 0.00 0.00 0.00 66 1016.3
20260505185947 19 174 19.3 32.2 0.00 0.00 0.00 66 1016.4
20260505185046 19 176 17.7 37.0 0.00 0.00 0.00 66 1016.5
20260505184146 19 181 17.7 37.0 0.00 0.00 0.00 66 1016.4
20260505183247 20 176 14.5 30.6 0.00 0.00 0.00 65 1016.5
20260505182346 19 181 16.1 27.4 0.00 0.00 0.00 66 1016.6
20260505181446 20 173 14.5 29.0 0.00 0.00 0.00 66 1016.6
20260505175646 20 185 14.5 30.6 0.00 0.00 0.00 66 1016.8
20260505174746 19 206 14.5 30.6 0.00 0.00 0.00 67 1016.8
20260505173846 19 200 16.1 33.8 0.00 0.00 0.00 68 1016.8
20260505172946 19 201 16.1 29.0 0.00 0.00 0.00 67 1016.9
20260505172046 19 205 16.1 29.0 0.00 0.00 0.00 66 1017.0
20260505170246 20 177 14.5 27.4 0.00 0.00 0.00 67 1016.8
20260505165346 20 181 12.9 27.4 0.00 0.00 0.00 66 1017.0
20260505164446 19 199 14.5 29.0 0.00 0.00 0.00 66 1017.2
20260505163545 20 182 14.5 24.1 0.00 0.00 0.00 65 1017.1
20260505162645 20 186 14.5 29.0 0.00 0.00 0.00 64 1017.2
20260505161745 21 221 11.3 25.7 0.00 0.00 0.00 63 1017.3
20260505160845 20 216 12.9 25.7 0.00 0.00 0.00 64 1017.4
20260505153245 20 193 9.7 19.3 0.00 0.00 0.00 67 1017.8
20260505150545 18 206 12.9 30.6 0.00 0.00 0.00 69 1018.1
20260505140245 18 205 9.7 22.5 0.00 0.00 0.00 70 1017.9